TimePDT,TemperatureF,Dew PointF,Humidity,Sea Level PressureIn,VisibilityMPH,Wind Direction,Wind SpeedMPH,Gust SpeedMPH,PrecipitationIn,Events,Conditions,WindDirDegrees,DateUTC
12:15 AM,41.0,41.0,100,30.00,10.0,Calm,Calm,-,N/A,,Clear,0,2013-09-20 07:15:00
12:35 AM,41.0,41.0,100,29.99,10.0,West,3.5,-,N/A,,Clear,260,2013-09-20 07:35:00
12:55 AM,41.0,41.0,100,29.99,10.0,Calm,Calm,-,N/A,,Clear,0,2013-09-20 07:55:00
1:15 AM,41.0,41.0,100,29.99,10.0,Calm,Calm,-,N/A,,Clear,0,2013-09-20 08:15:00
1:35 AM,41.0,41.0,100,29.99,10.0,Calm,Calm,-,N/A,,Clear,0,2013-09-20 08:35:00
1:55 AM,41.0,41.0,100,29.98,10.0,Calm,Calm,-,N/A,,Clear,0,2013-09-20 08:55:00
2:15 AM,39.2,39.2,100,29.98,10.0,West,3.5,-,N/A,,Clear,280,2013-09-20 09:15:00
2:35 AM,39.2,39.2,100,29.97,10.0,Calm,Calm,-,N/A,,Clear,0,2013-09-20 09:35:00
2:55 AM,37.4,37.4,100,29.97,10.0,Calm,Calm,-,N/A,,Clear,0,2013-09-20 09:55:00
3:15 AM,37.4,37.4,100,29.97,10.0,Calm,Calm,-,N/A,,Clear,0,2013-09-20 10:15:00
3:35 AM,39.2,39.2,100,29.96,10.0,NNW,3.5,-,N/A,,Clear,330,2013-09-20 10:35:00
3:55 AM,44.6,44.6,100,29.96,10.0,NNE,9.2,-,N/A,,Clear,30,2013-09-20 10:55:00
4:15 AM,41.0,41.0,100,29.96,10.0,North,3.5,-,N/A,,Clear,10,2013-09-20 11:15:00
4:35 AM,44.6,44.6,100,29.95,10.0,NNE,9.2,-,N/A,,Clear,30,2013-09-20 11:35:00
4:55 AM,37.4,37.4,100,29.95,10.0,NW,3.5,-,N/A,,Clear,310,2013-09-20 11:55:00
5:15 AM,39.2,39.2,100,29.94,10.0,Calm,Calm,-,N/A,,Clear,0,2013-09-20 12:15:00
5:35 AM,37.4,37.4,100,29.94,10.0,Calm,Calm,-,N/A,,Clear,0,2013-09-20 12:35:00
5:55 AM,35.6,35.6,100,29.94,10.0,Calm,Calm,-,N/A,,Clear,0,2013-09-20 12:55:00
6:15 AM,37.4,37.4,100,29.94,10.0,Calm,Calm,-,N/A,,Clear,0,2013-09-20 13:15:00
6:35 AM,37.4,37.4,100,29.94,10.0,Calm,Calm,-,N/A,,Clear,0,2013-09-20 13:35:00
6:55 AM,37.4,37.4,100,29.94,10.0,Calm,Calm,-,N/A,,Clear,0,2013-09-20 13:55:00
7:15 AM,41.0,41.0,100,29.93,10.0,NNE,5.8,-,N/A,,Clear,30,2013-09-20 14:15:00
7:35 AM,44.6,44.6,100,29.93,10.0,NNE,5.8,-,N/A,,Clear,30,2013-09-20 14:35:00
7:55 AM,48.2,44.6,87,29.93,10.0,NE,8.1,-,N/A,,Clear,50,2013-09-20 14:55:00
8:15 AM,50.0,42.8,76,29.93,10.0,NE,8.1,-,N/A,,Clear,50,2013-09-20 15:15:00
8:35 AM,51.8,44.6,76,29.92,10.0,ENE,6.9,-,N/A,,Clear,60,2013-09-20 15:35:00
8:55 AM,51.8,42.8,71,29.91,10.0,NE,9.2,-,N/A,,Clear,50,2013-09-20 15:55:00
9:15 AM,53.6,44.6,72,29.90,10.0,NE,9.2,16.1,N/A,,Clear,50,2013-09-20 16:15:00
9:35 AM,55.4,44.6,67,29.90,10.0,NE,15.0,19.6,N/A,,Clear,50,2013-09-20 16:35:00
9:55 AM,55.4,42.8,63,29.89,10.0,NE,15.0,20.7,N/A,,Clear,50,2013-09-20 16:55:00
10:15 AM,57.2,44.6,63,29.88,10.0,NE,16.1,-,N/A,,Clear,40,2013-09-20 17:15:00
10:35 AM,59.0,44.6,59,29.87,10.0,NNE,17.3,-,N/A,,Clear,30,2013-09-20 17:35:00
10:55 AM,60.8,44.6,55,29.86,10.0,NNE,17.3,20.7,N/A,,Clear,30,2013-09-20 17:55:00
11:15 AM,60.8,44.6,55,29.85,10.0,NE,16.1,23.0,N/A,,Clear,40,2013-09-20 18:15:00
11:35 AM,62.6,44.6,52,29.83,10.0,NE,16.1,-,N/A,,Clear,50,2013-09-20 18:35:00
11:55 AM,62.6,44.6,52,29.82,10.0,NE,11.5,17.3,N/A,,Clear,50,2013-09-20 18:55:00
12:15 PM,64.4,44.6,49,29.82,10.0,NE,13.8,18.4,N/A,,Clear,40,2013-09-20 19:15:00
12:35 PM,66.2,46.4,49,29.81,10.0,NE,10.4,-,N/A,,Clear,40,2013-09-20 19:35:00
12:55 PM,66.2,44.6,46,29.80,10.0,NE,10.4,17.3,N/A,,Clear,50,2013-09-20 19:55:00
1:15 PM,68.0,44.6,43,29.78,10.0,NE,10.4,16.1,N/A,,Clear,40,2013-09-20 20:15:00
1:35 PM,69.8,46.4,43,29.76,10.0,NE,10.4,-,N/A,,Clear,50,2013-09-20 20:35:00
1:55 PM,69.8,46.4,43,29.75,10.0,ENE,8.1,-,N/A,,Clear,60,2013-09-20 20:55:00
2:15 PM,71.6,44.6,38,29.74,10.0,NE,10.4,-,N/A,,Clear,40,2013-09-20 21:15:00
2:35 PM,71.6,44.6,38,29.74,10.0,NE,10.4,-,N/A,,Clear,40,2013-09-20 21:35:00
2:55 PM,71.6,42.8,35,29.73,10.0,NNE,9.2,-,N/A,,Clear,30,2013-09-20 21:55:00
3:15 PM,73.4,41.0,31,29.71,10.0,NE,12.7,-,N/A,,Clear,40,2013-09-20 22:15:00
3:35 PM,73.4,41.0,31,29.71,10.0,NNE,10.4,-,N/A,,Clear,30,2013-09-20 22:35:00
3:55 PM,71.6,41.0,33,29.69,10.0,NE,10.4,-,N/A,,Clear,40,2013-09-20 22:55:00
4:15 PM,73.4,41.0,31,29.69,10.0,NE,10.4,-,N/A,,Clear,40,2013-09-20 23:15:00
4:35 PM,71.6,41.0,33,29.67,10.0,NNE,10.4,-,N/A,,Clear,30,2013-09-20 23:35:00
4:55 PM,71.6,41.0,33,29.66,10.0,NNE,11.5,-,N/A,,Clear,30,2013-09-20 23:55:00
5:15 PM,71.6,41.0,33,29.65,10.0,NNE,13.8,17.3,N/A,,Clear,30,2013-09-21 00:15:00
5:35 PM,68.0,42.8,40,29.65,10.0,NE,9.2,-,N/A,,Clear,50,2013-09-21 00:35:00
5:55 PM,66.2,42.8,43,29.64,10.0,NNE,9.2,-,N/A,,Clear,30,2013-09-21 00:55:00
6:15 PM,64.4,44.6,49,29.63,10.0,NNE,10.4,-,N/A,,Clear,20,2013-09-21 01:15:00
6:35 PM,62.6,44.6,52,29.63,10.0,NNE,11.5,-,N/A,,Clear,20,2013-09-21 01:35:00
6:55 PM,62.6,42.8,48,29.62,10.0,North,10.4,-,N/A,,Clear,10,2013-09-21 01:55:00
7:15 PM,60.8,44.6,55,29.63,10.0,ESE,3.5,-,N/A,,Clear,110,2013-09-21 02:15:00
7:35 PM,59.0,44.6,59,29.64,10.0,Calm,Calm,-,N/A,,Clear,0,2013-09-21 02:35:00
7:55 PM,55.4,46.4,72,29.64,10.0,NNW,4.6,-,N/A,,Clear,330,2013-09-21 02:55:00
8:15 PM,53.6,46.4,77,29.64,10.0,Calm,Calm,-,N/A,,Clear,0,2013-09-21 03:15:00
8:35 PM,51.8,46.4,82,29.64,10.0,Calm,Calm,-,N/A,,Clear,0,2013-09-21 03:35:00
8:55 PM,50.0,48.2,94,29.64,10.0,WNW,3.5,-,N/A,,Clear,300,2013-09-21 03:55:00
9:15 PM,50.0,46.4,87,29.63,10.0,Calm,Calm,-,N/A,,Clear,0,2013-09-21 04:15:00
9:35 PM,46.4,46.4,100,29.63,10.0,Calm,Calm,-,N/A,,Clear,0,2013-09-21 04:35:00
9:55 PM,48.2,48.2,100,29.63,10.0,Calm,Calm,-,N/A,,Clear,0,2013-09-21 04:55:00
10:15 PM,46.4,46.4,100,29.62,10.0,West,3.5,-,N/A,,Clear,270,2013-09-21 05:15:00
10:35 PM,50.0,48.2,94,29.62,10.0,Calm,Calm,-,N/A,,Clear,0,2013-09-21 05:35:00
10:55 PM,46.4,46.4,100,29.61,10.0,Calm,Calm,-,N/A,,Clear,0,2013-09-21 05:55:00
11:15 PM,44.6,44.6,100,29.61,10.0,Calm,Calm,-,N/A,,Clear,0,2013-09-21 06:15:00
11:35 PM,44.6,44.6,100,29.60,10.0,WNW,3.5,-,N/A,,Clear,290,2013-09-21 06:35:00
11:55 PM,46.4,46.4,100,29.60,10.0,Calm,Calm,-,N/A,,Clear,0,2013-09-21 06:55:00